Miscellaneous Local Product
Issued by NWS Hastings, NE

Home | Current Version | Previous Version | Graphics & Text | Print | Product List | Glossary On
Versions: 1 2 3 4 5 6 7 8 9 10 11 12 13 14 15 16 17 18 19 20 21 22 23 24 25 26 27 28 29 30 31 32 33 34 35 36 37 38 39 40 41 42 43 44 45 46 47 48 49 50
000
AXUS43 KGID 171702
MISGRI

GID CWA HOURLY WEATHER ROUNDUP
NATIONAL WEATHER SERVICE HASTINGS NE
1200 PM CDT THU AUG 17 2017

NOTE: "FAIR" INDICATES FEW OR NO CLOUDS BELOW 12,000 FEET WITH NO
SIGNIFICANT WEATHER AND/OR OBSTRUCTIONS TO VISIBILITY.

...SOUTH CENTRAL NEBRASKA...

CITY           SKY/WX    TMP DP  RH WIND       PRES   REMARKS
GRAND ISLAND   SUNNY     78  56  46 W13       30.02S
HASTINGS       SUNNY     76  57  51 W10       30.04S
KEARNEY        SUNNY     77  59  53 W12       30.05S
ORD            SUNNY     77  55  46 W8        30.00S
YORK           SUNNY     73  57  56 NW9       30.01S
AURORA         SUNNY     75  60  60 W5        30.01F
LEXINGTON      SUNNY     77  60  54 SW8       30.06S
HOLDREGE       SUNNY     74  60  60 W14       30.06F
HEBRON         SUNNY     79  58  47 W7        30.02S

...NEBRASKA PANHANDLE...

CITY           SKY/WX    TMP DP  RH WIND       PRES   REMARKS
CHADRON        CLOUDY    79  51  37 CALM      29.98F
ALLIANCE       SUNNY     79  53  40 S13       30.04S
SCOTTSBLUFF    CLOUDY    77  58  51 E6        30.05F
SIDNEY         SUNNY     78  51  38 S13       30.10F

...WESTERN AND NORTH CENTRAL NEBRASKA...

CITY           SKY/WX    TMP DP  RH WIND       PRES   REMARKS
VALENTINE      SUNNY     82  53  36 VRB6      29.98F
AINSWORTH      SUNNY     79  58  48 W6        30.00F
ONEILL         SUNNY     73  58  57 CALM      30.00S
BROKEN BOW     SUNNY     78  60  53 W10       30.03F
IMPERIAL       SUNNY     81  55  40 SW10      30.07F
NORTH PLATTE   SUNNY     79  57  46 SW12      30.05F
MCCOOK         SUNNY     79  56  45 S6        30.06F

...EASTERN NEBRASKA...

CITY           SKY/WX    TMP DP  RH WIND       PRES   REMARKS
NORFOLK        SUNNY     76  56  49 NW17      29.95F
SO SIOUX CITY  SUNNY     75  61  61 NW20G26   29.90R
TEKAMAH        SUNNY     76  59  55 NW17G23   29.92R
COLUMBUS       SUNNY     74  60  61 NW9       29.99S
ALBION         SUNNY     77  56  49 NW8       30.00R
OMAHA EPPLEY   MOSUNNY   79  59  50 NW14G23   29.93R
OFFUTT AFB     SUNNY     79  57  46 NW16G26   29.93R
MILLARD        MOSUNNY   77  61  56 NW13G18   29.95R
LINCOLN        SUNNY     78  56  46 NW10G21   29.98S
NEBRASKA CITY  SUNNY     77  62  60 NW15G25   29.96S
BEATRICE       SUNNY     78  58  48 W15       29.99F
FALLS CITY     SUNNY     77  60  55 NW14G22   29.95S

...NORTHERN KANSAS...

CITY           SKY/WX    TMP DP  RH WIND       PRES   REMARKS
GOODLAND       PTSUNNY   76  59  55 S9        30.12F
HILL CITY      SUNNY     81  53  37 W8        30.08S
NORTON         SUNNY     79  46  31 SW7       30.06F
PHILLIPSBURG   SUNNY     82  54  36 SW7       30.05F
SMITH CENTER   PTSUNNY   79  61  53 W9        30.05F
HAYS           MOSUNNY   79  55  43 W7        30.07F
RUSSELL        SUNNY     82  59  45 W10       30.05F
CONCORDIA      SUNNY     80  58  46 W12       30.02F
SALINA         SUNNY     84  56  38 N14       30.04F
TOPEKA         SUNNY     81  62  52 NW9       29.99R



USA.gov is the U.S. government's official web portal to all federal, state and local government web resources and services.